Weather History for Prescott, AZ

Change the Weather History Date:

Thursday, October 18, 2012

  Actual Average Record
Temperature  
Mean Temperature 60 °F 56 °F  
Max Temperature 79 °F 71 °F 86 °F (2003)
Min Temperature 41 °F 41 °F 29 °F (1984)
Degree Days  
Heating Degree Days 5    
Month to date heating degree days  
Since 1 July heating degree days  
Cooling Degree Days 0    
Month to date cooling degree days  
Year to date cooling degree days  
Growing Degree Days 10 (Base 50)    
Moisture  
Dew Point 21 °F    
Average Humidity 30    
Maximum Humidity 58    
Minimum Humidity 5    
Precipitation  
Precipitation 0.00 in 0.03 in 1.32 in (1972)
Month to date precipitation 0.57  
Year to date precipitation 11.74  
Sea Level Pressure  
Sea Level Pressure 30.00 in    
Wind  
Wind Speed 4 mph (SW)    
Max Wind Speed 8 mph    
Max Gust Speed -    
Visibility 10 miles    
Events      
T = Trace of Precipitation, MM = Missing Value Source: NWS Daily Summary

Daily Weather History Graph

Daily Weather History Graph

Search for Another Location

Airport:

Trip Planner

Search our weather history database for the weather conditions in past years. The results will help you decide how hot, cold, wet, or windy it might be!

Date:

Astronomy

Oct. 18, 2012 Rise Set
Actual Time 6:38 AM MST 5:50 PM MST
Civil Twilight 6:12 AM MST 6:16 PM MST
Nautical Twilight 5:43 AM MST 6:45 PM MST
Astronomical Twilight 5:14 AM MST 7:14 PM MST
Moon 10:15 AM MST (10/18) 8:37 PM MST (10/18)
Length of Visible Light 12h 03m
Length of Day
11h 12m
Waxing Crescent, 15% of the Moon is Illuminated
Oct 18
Waxing Crescent
Oct 21
First Quarter
Oct 29
Full
Nov 6
Last Quarter
Nov 13
New

Hourly Weather History & Observations

Time (MST) Temp. Windchill Dew Point Humidity Pressure Visibility Wind Dir Wind Speed Gust Speed Precip Events Conditions
12:53 AM 50.0 °F - 35.1 °F 57% 29.97 in 10.0 mi West 3.5 mph - N/A   Clear
1:53 AM 48.0 °F - 34.0 °F 58% 29.99 in 10.0 mi SSW 3.5 mph - N/A   Clear
2:53 AM 48.9 °F - 30.0 °F 48% 29.97 in 10.0 mi Calm Calm - N/A   Clear
3:53 AM 46.9 °F - 28.9 °F 50% 29.98 in 10.0 mi SSW 5.8 mph - N/A   Clear
4:53 AM 45.0 °F 42.6 °F 27.0 °F 49% 30.00 in 10.0 mi South 4.6 mph - N/A   Clear
5:53 AM 45.0 °F 41.8 °F 25.0 °F 46% 30.01 in 10.0 mi SSW 5.8 mph - N/A   Clear
6:53 AM 41.0 °F 39.0 °F 25.0 °F 53% 30.05 in 10.0 mi SSW 3.5 mph - N/A   Clear
7:53 AM 50.0 °F - 26.1 °F 39% 30.06 in 10.0 mi SSW 3.5 mph - N/A   Clear
8:53 AM 59.0 °F - 16.0 °F 19% 30.06 in 10.0 mi West 3.5 mph - N/A   Clear
9:53 AM 66.9 °F - 16.0 °F 14% 30.05 in 10.0 mi North 3.5 mph - N/A   Clear
10:53 AM 71.1 °F - 15.1 °F 12% 30.03 in 10.0 mi Calm Calm - N/A   Clear
11:53 AM 73.9 °F - 14.0 °F 10% 30.02 in 10.0 mi Calm Calm - N/A   Clear
12:53 PM 75.9 °F - 12.9 °F 9% 30.00 in 10.0 mi Calm Calm - N/A   Clear
1:53 PM 79.0 °F - 1.0 °F 5% 29.97 in 10.0 mi Variable 3.5 mph - N/A   Clear
2:53 PM 79.0 °F - 3.9 °F 6% 29.96 in 10.0 mi North 6.9 mph - N/A   Clear
3:53 PM 79.0 °F - 8.1 °F 7% 29.96 in 10.0 mi Variable 4.6 mph - N/A   Clear
4:53 PM 75.9 °F - 8.1 °F 7% 29.96 in 10.0 mi Calm Calm - N/A   Clear
5:53 PM 70.0 °F - 23.0 °F 17% 29.98 in 10.0 mi West 6.9 mph - N/A   Clear
6:53 PM 64.0 °F - 24.1 °F 22% 30.02 in 10.0 mi SSW 5.8 mph - N/A   Clear
7:53 PM 61.0 °F - 26.1 °F 26% 30.02 in 10.0 mi South 4.6 mph - N/A   Clear
8:53 PM 57.0 °F - 27.0 °F 32% 30.01 in 10.0 mi South 8.1 mph - N/A   Clear
9:53 PM 51.1 °F - 32.0 °F 48% 30.01 in 10.0 mi SSW 4.6 mph - N/A   Clear
10:53 PM 52.0 °F - 26.1 °F 37% 29.99 in 10.0 mi SSW 8.1 mph - N/A   Clear
11:53 PM 48.9 °F - 28.0 °F 44% 30.00 in 10.0 mi South 4.6 mph - N/A   Clear